User: anonymous   Login
Location: Chevoux
(46.3801°N, 4.9476°E)
Time: 20:39:45
(UTC+00:00)
Language:

S3M - Orbit

View from above orbital plane
View from above orbital plane
View from above satellite
View from above satellite

Ground track
Ground track

The orbit data is extracted from the following two-line orbital elements,

1 12508U 81053B   21127.23259236  .00000038  00000-0  23099-4 0  9996
2 12508  82.9585 171.2149 0037156 192.8616 167.1597 13.76371194 10778
Epoch (UTC): 07 May 2021 05:34:55
Eccentricity: 0.0037156
inclination: 82.9585°
perigee height: 949 km
apogee height: 1004 km
right ascension of ascending node: 171.2149°
argument of perigee: 192.8616°
revolutions per day: 13.76371194
mean anomaly at epoch: 167.1597°
orbit number at epoch: 1077

The dashed part of the orbit path shows where the satellite is in the earth's shadow,  

DLR